Location: Newark
(48.8833°N, 0.9236°W)
Time: 13:17:04
(UTC+00:00)

Transit 4A - All Passes

Search period start: 14 November 2019 00:00
Search period end: 24 November 2019 00:00
Orbit: 868 x 976 km, 66.8° (Epoch: 13 November)

Date Brightness Start Highest point End Pass type
(mag) Time Alt. Az. Time Alt. Az. Time Alt. Az.
14 Nov - 00:51:49 10° WSW 00:57:30 36° NW 01:03:04 10° NNE visible
14 Nov - 02:42:05 10° NW 02:45:44 16° NNW 02:49:20 10° NNE visible
14 Nov - 04:31:12 10° NNW 04:34:44 16° NNE 04:38:12 10° NE visible
14 Nov - 06:17:33 10° NNW 06:23:00 35° NE 06:28:18 10° ESE visible
14 Nov - 08:03:52 10° NW 08:09:42 60° WSW 08:15:23 10° SSE daylight
14 Nov - 21:30:35 10° SE 21:34:31 18° ESE 21:38:24 10° ENE night (unlit)
14 Nov - 23:13:46 10° SSW 23:20:03 85° ESE 23:26:13 10° NE night (unlit)
15 Nov - 01:01:50 10° W 01:07:07 28° NW 01:12:20 10° NNE visible
15 Nov - 02:52:21 10° NW 02:55:38 15° N 02:58:52 10° NNE visible
15 Nov - 04:40:40 10° NNW 04:44:35 17° NNE 04:48:27 10° ENE visible
15 Nov - 06:26:50 10° NNW 06:32:33 45° NE 06:38:08 10° ESE visible
15 Nov - 08:13:23 10° NW 08:18:54 42° WSW 08:24:18 10° S daylight
15 Nov - 21:38:35 10° SSE 21:43:34 25° ESE 21:48:27 10° NE night (unlit)
15 Nov - 23:23:10 10° SW 23:29:25 73° NW 23:35:33 10° NNE night (unlit)
16 Nov - 01:11:58 10° W 01:16:50 23° NNW 01:21:36 10° NNE visible
16 Nov - 03:02:29 10° NNW 03:05:32 14° N 03:08:36 10° NNE visible
16 Nov - 04:50:02 10° NNW 04:54:24 20° NNE 04:58:42 10° ENE visible
16 Nov - 06:36:07 10° NNW 06:42:02 60° NE 06:47:48 10° SE visible
16 Nov - 08:23:02 10° NW 08:28:01 29° WSW 08:32:56 10° SSW daylight
16 Nov - 21:47:04 10° S 21:52:41 36° ESE 21:58:11 10° NE night (unlit)
16 Nov - 23:32:44 10° SW 23:38:52 54° NW 23:44:52 10° NNE night (unlit)
17 Nov - 01:22:13 10° WNW 01:26:36 20° NNW 01:30:55 10° NNE visible
17 Nov - 03:12:24 10° NNW 03:15:29 14° N 03:18:32 10° NE visible
17 Nov - 04:59:21 10° NNW 05:04:10 24° NNE 05:08:52 10° E visible
17 Nov - 06:45:28 10° NW 06:51:27 81° NE 06:57:17 10° SE daylight
17 Nov - 08:32:55 10° WNW 08:37:05 20° WSW 08:41:11 10° SSW daylight
17 Nov - 21:55:51 10° S 22:01:52 50° ESE 22:07:45 10° NE night (unlit)
17 Nov - 23:42:30 10° WSW 23:48:23 41° NW 23:54:08 10° NNE night (unlit)
18 Nov - 01:32:32 10° WNW 01:36:26 17° NNW 01:40:16 10° NNE visible
18 Nov - 03:22:07 10° NNW 03:25:24 15° N 03:28:39 10° NE visible
18 Nov - 05:08:38 10° NNW 05:13:50 30° NE 05:18:56 10° E visible
18 Nov - 06:54:50 10° NW 07:00:46 74° WSW 07:06:34 10° SSE daylight
18 Nov - 08:43:22 10° WNW 08:46:03 13° WSW 08:48:44 10° SW daylight
18 Nov - 20:22:56 10° SE 20:25:47 13° ESE 20:28:37 10° ENE night (unlit)
18 Nov - 22:04:53 10° SSW 22:11:07 70° ESE 22:17:12 10° NE night (unlit)
18 Nov - 23:52:26 10° W 23:57:58 33° NW 00:03:24 10° NNE night (unlit)
19 Nov - 01:42:50 10° NW 01:46:19 15° NNW 01:49:44 10° NNE visible
19 Nov - 03:31:39 10° NNW 03:35:17 16° NNE 03:38:52 10° NE visible
19 Nov - 05:17:55 10° NNW 05:23:27 38° NE 05:28:51 10° ESE visible
19 Nov - 07:04:17 10° NW 07:10:01 52° WSW 07:15:37 10° SSE daylight
19 Nov - 20:30:26 10° SSE 20:34:47 20° ESE 20:39:04 10° ENE night (unlit)
19 Nov - 22:14:10 10° SW 22:20:26 87° NW 22:26:35 10° NE night (unlit)
20 Nov - 00:02:30 10° W 00:07:38 26° NNW 00:12:40 10° NNE night (unlit)
20 Nov - 01:53:03 10° NW 01:56:13 14° N 01:59:20 10° NNE visible
20 Nov - 03:41:04 10° NNW 03:45:08 18° NNE 03:49:08 10° ENE visible
20 Nov - 05:27:12 10° NNW 05:32:59 49° NE 05:38:38 10° ESE visible
20 Nov - 07:13:51 10° NW 07:19:12 37° WSW 07:24:27 10° S daylight
20 Nov - 20:38:37 10° SSE 20:43:51 29° ESE 20:48:59 10° NE night (unlit)
20 Nov - 22:23:37 10° SW 22:29:50 65° NW 22:35:54 10° NNE night (unlit)
21 Nov - 00:12:41 10° WNW 00:17:22 22° NNW 00:21:57 10° NNE night (unlit)
21 Nov - 02:03:07 10° NNW 02:06:08 14° N 02:09:08 10° NNE visible
21 Nov - 03:50:25 10° NNW 03:54:56 21° NNE 03:59:21 10° ENE visible
21 Nov - 05:36:30 10° NNW 05:42:26 67° NE 05:48:13 10° SE visible
21 Nov - 07:23:34 10° NW 07:28:18 26° WSW 07:32:57 10° SSW daylight
21 Nov - 20:47:13 10° S 20:52:59 40° ESE 20:58:38 10° NE night (unlit)
21 Nov - 22:33:16 10° WSW 22:39:18 49° NW 22:45:12 10° NNE night (unlit)
22 Nov - 00:22:58 10° WNW 00:27:09 19° NNW 00:31:16 10° NNE night (unlit)
22 Nov - 02:12:57 10° NNW 02:16:04 14° N 02:19:08 10° NE visible
22 Nov - 03:59:42 10° NNW 04:04:39 26° NNE 04:09:30 10° E visible
22 Nov - 05:45:50 10° NW 05:51:49 90° NE 05:57:38 10° SSE visible
22 Nov - 07:33:36 10° WNW 07:37:19 17° WSW 07:41:00 10° SW daylight
22 Nov - 20:56:07 10° SSW 21:02:12 56° ESE 21:08:09 10° NE night (unlit)
22 Nov - 22:43:06 10° WSW 22:48:51 38° NW 22:54:27 10° NNE night (unlit)
23 Nov - 00:33:17 10° NW 00:37:00 16° NNW 00:40:39 10° NNE night (unlit)
23 Nov - 02:22:35 10° NNW 02:25:58 15° NNE 02:29:18 10° NE visible
23 Nov - 04:08:59 10° NNW 04:14:19 32° NE 04:19:31 10° E visible
23 Nov - 05:55:15 10° NW 06:01:07 66° WSW 06:06:51 10° SSE visible
23 Nov - 07:44:33 10° W 07:46:17 11° W 07:47:59 10° WSW daylight
23 Nov - 19:22:32 10° SE 19:26:02 16° ESE 19:29:29 10° ENE night (unlit)
23 Nov - 21:05:14 10° SSW 21:11:28 78° ESE 21:17:35 10° NE night (unlit)
23 Nov - 22:53:04 10° W 22:58:27 30° NW 23:03:43 10° NNE night (unlit)
